Weather in Dartmouth

United Kingdom     50°21′10″N   3°35′25″W
temp.,
°C
wind,
m/s
gust,
m/s
humid.,
%
clouds,
%
prec.,
mm/h
press.,
hPa
HPBL,
m
20 september, mon
mon2001:00+12nw47832 0.0 1020204
04:00+13nw47820 0.0 1022224
07:00+13nnw34810 0.0 1023113
10:00+14n45800 0.0 1024174
13:00+15ne23750 0.0 1025146
16:00+16ssw23740 0.0 1025176
19:00+16nnw22711 0.0 102712
22:00+14nw4481100 0.0 102847
21 september, tue
tue2101:00+14nnw3380100 0.0 102949
04:00+14n3475100 0.0 102969
07:00+13n34805 0.0 103097
10:00+14nne337876 0.0 1031130
13:00+14e337865 0.0 1031163
16:00+15s1175100 0.0 103081
19:00+14wsw3376100 0.0 103029
22:00+14w337823 0.0 103034
22 september, wed
wed2201:00+14nnw228377 0.0 102917
04:00+14nne008796 0.0 102810
07:00+14w118521 0.0 102812
10:00+14wsw238368 0.0 102858
13:00+15sw448243 0.0 1027159
16:00+15sw56855 0.0 1025160
19:00+15wsw578848 0.0 102495
22:00+14wnw34885 0.0 102459
23 september, thu
thu2301:00+13w468720 0.0 1022118
04:00+13w5891100 0.0 1021194
07:00+14wsw61092100 0.0 1020238
10:00+15wsw71194100 0.0 1019225
13:00+17w6981100 0.1 1018161
16:00+17nw587296 0.0 1018147
19:00+15nnw45789 0.0 101946
22:00+14wnw458576 0.0 102084
24 september, fri
fri2401:00+14wnw228792 0.0 102046
04:00+13w12885 0.0 101825
07:00+14w45900 0.0 1017101
10:00+15w568530 0.0 1017137
13:00+15wsw798613 0.0 1016243
16:00+15wsw8128691 0.0 1014271
19:00+15wsw8139154 0.0 1013278
22:00+15wsw8129473 0.0 1012290